Preview of NWS' New Version of Forecast
This preview is not operational and should not be used for support decisions.

Regional Weather Roundup (RWR)

Issued by National Weather Service (NWS)

                            
000
ASUS44 KJAN 181810
RWRMS 

MISSISSIPPI HOURLY WEATHER ROUNDUP
NATIONAL WEATHER SERVICE JACKSON MS
1200 PM CST MON FEB 18 2019

NOTE: "FAIR: INDICATES FEW OR NO CLOUDS BELOW 12,000 FEET WITH NO
SIGNIFICANT WEATHER AND/OR OBSTRUCTIONS TO VISIBILITY.

MSZ001>002-007>008-010>013-018>021-025>028-034>036-181900-
NORTHWEST MISSISSIPPI
  
CITY           SKY/WX    TMP DP  RH WIND       PRES   REMARKS
BATESVILLE     FAIR      41  28  60 NE7       30.36S                  
CLARKSDALE     SUNNY     43  28  56 N14       30.39S                  
CLEVELAND      FAIR      37  29  73 N13       30.37F WCI  29          
GREENWOOD      FAIR      42  32  67 N12       30.33F                  
6HR MIN TEMP:  35; 6HR MAX TEMP:  42;                                

GREENVILLE     FAIR      38  29  70 N17       30.35F WCI  28          
6HR MIN TEMP:  35; 6HR MAX TEMP:  38;                                

OLIVE BRANCH   PTSUNNY   37  23  56 N12G17    30.39S WCI  30          
OXFORD         FAIR      37  25  60 N8G14     30.37S WCI  31          
TUNICA           N/A     36  28  75 N14       30.40S WCI  27          
WINONA         FAIR      42  32  67 N10       30.30F                  
$$

MSZ003>006-009-014>017-022>024-029>033-037>039-181900-
NORTHEAST MISSISSIPPI
  
CITY           SKY/WX    TMP DP  RH WIND       PRES   REMARKS
ABERDEEN       FAIR      43  37  81 N13       30.34F                  
COLUMBUS AFB   CLOUDY    45  34  65 N10       30.31F                  
CORINTH        FAIR      39  28  65 N8G14     30.36F WCI  34          
GOLDN TRIANGLE FAIR      47  36  65 N8        30.31F                  
STARKVILLE     FAIR      43  34  70 N7        30.33S                  
TUPELO         FAIR      42  29  59 N8        30.34F                  
6HR MIN TEMP:  35; 6HR MAX TEMP:  43;                                

$$

MSZ040-058-181900-
CENTRAL MISSISSIPPI
  
CITY           SKY/WX    TMP DP  RH WIND       PRES   REMARKS
JACKSON INTL   PTSUNNY   45  34  65 N13       30.30S                  
6HR MIN TEMP:  39; 6HR MAX TEMP:  46;                                

JACKSON HAWKNS FAIR      43  35  73 NE9       30.30R                  
6HR MIN TEMP:   1; 6HR MAX TEMP:  43;                                

MADISON        FAIR      45  34  65 N3        30.29F                  
MERIDIAN KEY   FAIR      55  33  43 NE15      30.26F                  
6HR MIN TEMP:  43; 6HR MAX TEMP:  55;                                

MERIDIAN NAS   FAIR      52  34  50 NE13      30.27F                  
6HR MIN TEMP:  40; 6HR MAX TEMP:  53;                                

RAYMOND          N/A     50  36  57 NE8G15    30.28F                  
VICKSBURG VKS  CLEAR     48  36  61 N15       30.30F                  
$$

MSZ059>079-181900-
SOUTH MISSISSIPPI
  
CITY           SKY/WX    TMP DP  RH WIND       PRES   REMARKS
HATTIESBURG    PTSUNNY   59  32  36 NE9       30.22S                  
6HR MIN TEMP:  48; 6HR MAX TEMP:  61;                                

LAUREL         FAIR      55  31  41 NE10      30.23F                  
MCCOMB         FAIR      53  28  38 N13G21    30.21S                  
6HR MIN TEMP:  44; 6HR MAX TEMP:  53;                                

NATCHEZ        FAIR      51  33  50 NE13G18   30.25F                  
6HR MIN TEMP:  42; 6HR MAX TEMP:  51;                                

PINE BELT      FAIR      56  32  40 NE12      30.23F                  
6HR MIN TEMP:  45; 6HR MAX TEMP:  57;                                

$$

MSZ080>082-181900-
COASTAL MISSISSIPPI
  
CITY           SKY/WX    TMP DP  RH WIND       PRES   REMARKS
BAY ST LOUIS   CLOUDY    54  45  71 NE12      30.19F                  
BILOXI         LGT RAIN  50  47  89 NE10      30.18F                  
6HR MIN TEMP:  49; 6HR MAX TEMP:  53; 6HR PCP:  0.05;                

PASCAGOULA     LGT RAIN  51  46  83 NE12      30.19S                  
6HR MIN TEMP:  51; 6HR MAX TEMP:  54; 6HR PCP: TRACE;                

GULFPORT       LGT RAIN  51  47  86 NE5       30.18F FOG              
6HR MIN TEMP:  50; 6HR MAX TEMP:  54; 6HR PCP:  0.25;                

$$

LAZ007>009-015>016-023>026-181900-
NORTHEAST LOUISIANA
  
CITY           SKY/WX    TMP DP  RH WIND       PRES   REMARKS
BASTROP        FAIR      41  27  57 NE5       30.36S                  
TALLULAH/VBURG FAIR      46  35  65 N12       30.32S                  
6HR MIN TEMP:  40; 6HR MAX TEMP:  47;                                

VIDALIA        FAIR      49  34  56 N14G23    30.25F                  
$$